Wind from 040 at 10 knots

Air temperature 7.0° C
Dewpoint -1.0° C

Last reported at 2014-Apr-23 05:23 UTC.
Time now 2014-Apr-23 07:20 UTC

Location: N 56°51' E 014°50'.
View on Google Maps.

See reports from other nearby stations

Tides Stations Pressure Air Temp Water Temp Dewpoint Dewpoint depression Visibility Wind Speed Wind Dir Waves Ship positions

  
sailing weather and tide predictions

VAXJO weather

date/time (UTC)wind fromknots sea level pressurealtimeterstation pressurevisibilityair tempwater tempwave heightnotes
2014-Apr-23 06:20 040 11 5.4 8.0
2014-Apr-23 05:50 040 10 7.0
2014-Apr-23 05:23 040 10 7.0
2014-Apr-23 05:20 040 9 5.4 7.0
2014-Apr-23 04:50 040 10 6.0
2014-Apr-23 04:20 040 10 6.0
2014-Apr-23 03:50 040 9 6.0
2014-Apr-23 03:20 030 10 5.4 6.0
2014-Apr-23 02:50 040 9 5.4 6.0
2014-Apr-23 02:20 040 10 5.4 6.0
2014-Apr-23 01:50 040 10 5.4 7.0
2014-Apr-23 01:20 050 8 5.4 7.0
2014-Apr-23 00:50 040 10 5.4 7.0
2014-Apr-23 00:20 040 10 5.4 7.0
2014-Apr-22 23:50 050 9 7.0
2014-Apr-22 23:20 050 7 8.0
2014-Apr-22 22:50 060 9 8.0
2014-Apr-22 22:20 060 8 9.0
2014-Apr-22 21:50 060 9 9.0
2014-Apr-22 21:20 050 8 10.0
2014-Apr-22 20:50 060 7 10.0
2014-Apr-22 20:20 060 7 10.0
2014-Apr-22 19:50 060 8 11.0
2014-Apr-22 19:20 040 7 11.0
2014-Apr-22 18:50 040 8 12.0
2014-Apr-22 18:20 040 8 12.0
2014-Apr-22 17:50 040 9 13.0
2014-Apr-22 17:20 050 9 14.0
2014-Apr-22 16:50 050 8 15.0
2014-Apr-22 16:20 050 11 15.0
2014-Apr-22 15:50 050 11 16.0
2014-Apr-22 15:20 040 10 17.0
2014-Apr-22 14:50 040 11 18.0
2014-Apr-22 14:20 040 10 18.0
2014-Apr-22 13:50 050 12 18.0
2014-Apr-22 13:20 070 10 18.0
2014-Apr-22 12:50 060 10 18.0
2014-Apr-22 12:20 050 10 17.0
2014-Apr-22 11:50 050 10 16.0
2014-Apr-22 11:20 070 10 16.0
2014-Apr-22 10:50 050 8 5.416.0
2014-Apr-22 10:20 060 8 16.0
2014-Apr-22 09:50 070 12 16.0
2014-Apr-22 09:20 070 9 16.0
2014-Apr-22 08:50 070 9 15.0
2014-Apr-22 08:20 060 9 16.0
2014-Apr-22 07:50 040 8 15.0
2014-Apr-22 07:20 040 8 14.0
2014-Apr-22 06:50 050 8 13.0
2014-Apr-22 06:20 040 9 12.0
2014-Apr-22 05:50 040 10 11.0
2014-Apr-22 05:20 040 9 11.0
2014-Apr-22 04:50 040 8 11.0
2014-Apr-22 04:20 030 10 10.0
2014-Apr-22 03:50 030 11 10.0
2014-Apr-22 03:20 030 11 5.410.0
2014-Apr-22 02:50 010 10 5.4 9.0
2014-Apr-22 02:20 010 8 5.4 9.0 Light drizzle.
2014-Apr-22 01:50 020 7 5.4 9.0
2014-Apr-22 01:20 030 8 5.4 8.0 Light drizzle.
2014-Apr-22 00:50 030 8 5.4 9.0 Light rain.
2014-Apr-22 00:20 030 9 5.4 9.0
2014-Apr-21 23:50 030 10 9.0
2014-Apr-21 23:20 030 9 9.0
2014-Apr-21 22:50 030 9 10.0
2014-Apr-21 22:20 030 8 5.410.0
2014-Apr-21 21:50 030 5 10.0
2014-Apr-21 21:20 040 9 11.0
2014-Apr-21 20:50 020 7 11.0
2014-Apr-21 20:20 040 9 5.412.0
2014-Apr-21 19:50 040 10 12.0
2014-Apr-21 19:20 040 9 13.0
2014-Apr-21 18:50 050 8 13.0
2014-Apr-21 18:20 040 10 14.0
2014-Apr-21 17:50 040 8 15.0
2014-Apr-21 17:20 040 7 16.0
2014-Apr-21 16:50 030 7 17.0
2014-Apr-21 16:20 080 5 17.0
2014-Apr-21 15:50 080 6 17.0
2014-Apr-21 15:20 080 6 18.0
2014-Apr-21 14:50 060 8 18.0
2014-Apr-21 14:20 040 9 18.0
2014-Apr-21 13:50 050 10 19.0
2014-Apr-21 13:20 050 10 20.0
2014-Apr-21 12:50 060 10 19.0
2014-Apr-21 12:30 060 11 20.0
2014-Apr-21 12:20 060 9 5.419.0
2014-Apr-21 11:50 060 9 19.0
2014-Apr-21 11:20 050 10 gusting 20 19.0
2014-Apr-21 10:50 050 12 gusting 25 19.0
2014-Apr-21 10:20 050 10 5.419.0
2014-Apr-21 09:50 060 11 18.0
2014-Apr-21 09:20 040 11 18.0
2014-Apr-21 08:50 040 10 18.0
2014-Apr-21 08:20 040 10 17.0
2014-Apr-21 07:50 030 9 15.0
2014-Apr-21 07:20 010 9 5.414.0